Flag for Egypt Weather past 2 weeks in Port Said, Egypt

Now
61 °F

Clear.


Feels Like: 61 °F
Forecast: 58 / 62 °F
Wind: 5 mph from North

Location: Port Said Airport

Current Time: Jan 26, 2015 at 2:53:44 AM

Latest Report: Jan 26, 2015 at 2:00 AM


Visibility: 10 mi

Pressure: 30.07 "Hg

Humidity: 88%

Dew point: 57 °F

Location of Port SaidLocation

Historic Weather in Port Said — Graph

°F

Port Said temperature yesterday

Maximum temperature yesterday: 66 °F (at 1:00 PM)
Minimum temperature yesterday: 57 °F (at 6:00 AM)
Average temperature yesterday: 62 °F

Past Weeks' High & Low Weather Summary

 TemperatureHumidityPressure
High75 °F (Jan 22, 2:00 PM)100% (Jan 19, 3:00 AM)30.36 "Hg (Jan 19, 3:00 AM)
Low48 °F (Jan 11, 5:00 AM)36% (Jan 22, 2:00 PM)29.92 "Hg (Jan 23, 3:00 PM)
Average59 °F77%30.13 "Hg
* Reported Jan 11 1:00 AM — Jan 26 1:00 AM, Port Said, Weather by CustomWeather, © 2014

Note: Actual official high and low records may vary slightly from our data, if they occured in-between our weather recording intervals... More about our weather records

Advertising

Port Said weather history for previous 24 hours

 ConditionsComfort  
Time TempWeatherWind HumidityBarometerVisibility
1:00 AM
Jan 26
63 °FClear.8 mph83%30.07 "Hg10 mi
12:00 AM63 °FClear.7 mph88%30.07 "Hg10 mi
11:00 PM
Jan 25
63 °FClear.9 mph94%30.07 "Hg10 mi
10:00 PM63 °FClear.9 mph83%30.07 "Hg10 mi
9:00 PM63 °FClear.9 mph88%30.07 "Hg10 mi
8:00 PM63 °FClear.9 mph94%30.07 "Hg10 mi
7:00 PM63 °FClear.9 mph94%30.04 "Hg10 mi
6:00 PM64 °FClear.12 mph88%30.04 "Hg10 mi
5:00 PM64 °FSunny.9 mph88%30.04 "Hg10 mi
4:00 PM66 °FSunny.8 mph83%30.04 "Hg10 mi
3:00 PM66 °FSunny.9 mph83%30.01 "Hg10 mi
2:00 PM66 °FSunny.7 mph78%30.01 "Hg10 mi
1:00 PM66 °FSunny.7 mph83%30.04 "Hg10 mi
12:00 PM64 °FPartly sunny.6 mph83%30.04 "HgN/A
11:00 AM64 °FPartly sunny.6 mph83%30.04 "HgN/A
10:00 AM63 °FPartly sunny.5 mph100%30.04 "HgN/A
9:00 AM61 °FSunny.3 mph83%30.04 "Hg10 mi
8:00 AM57 °FSunny.6 mph88%30.01 "Hg10 mi
7:00 AM57 °FSunny.7 mph88%30.01 "Hg10 mi
6:00 AM57 °FClear.5 mph88%29.98 "Hg10 mi
5:00 AM59 °FClear.5 mph82%29.95 "Hg10 mi
4:00 AM59 °FClear.6 mph88%29.95 "Hg10 mi
3:00 AM59 °FClear.7 mph88%29.95 "Hg10 mi
2:00 AM61 °FClear.7 mph88%29.95 "Hg10 mi
Weather by CustomWeather, © 2014

See weather overviewHow to use our weather pages